FW1417 Weather Reports


Display with metric or nautical units.
time (UTC)temp
F
wind
direction
speed
MPH
gust
MPH
rain 1hr
in
rain 24hr
in
rain mn
in
humidity
%
barometer
mb
20260505011206 66 160 5.0 10.0 0.00 0.00 0.00 49 1007.0
20260505010706 66 253 4.0 12.0 0.00 0.00 0.00 49 1007.0
20260505010207 66 160 5.0 12.0 0.00 0.00 0.00 49 1007.0
20260505005706 65 140 5.0 13.0 0.00 0.00 0.00 50 1006.9
20260505005206 66 153 5.0 13.0 0.00 0.00 0.00 51 1006.7
20260505004706 66 146 5.0 12.0 0.00 0.00 0.00 51 1006.7
20260505004206 66 119 6.0 10.0 0.00 0.00 0.00 51 1006.7
20260505003206 66 136 5.0 12.0 0.00 0.00 0.00 50 1006.6
20260505002707 66 146 5.0 12.0 0.00 0.00 0.00 51 1006.5
20260505002206 66 150 5.0 13.0 0.00 0.00 0.00 50 1006.4
20260505001706 66 152 6.0 13.0 0.00 0.00 0.00 50 1006.4
20260505000706 67 137 6.0 10.0 0.00 0.00 0.00 48 1006.2
20260505000206 67 133 5.0 12.0 0.00 0.00 0.00 48 1006.1
20260504235706 67 149 4.0 12.0 0.00 0.00 0.00 47 1006.0
20260504235206 67 137 4.0 12.0 0.00 0.00 0.00 46 1006.0
20260504234206 68 163 3.0 10.0 0.00 0.00 0.00 45 1005.8
20260504233706 68 128 4.0 10.0 0.00 0.00 0.00 45 1005.7
20260504232706 68 133 5.0 12.0 0.00 0.00 0.00 44 1005.6
20260504232206 69 165 6.0 12.0 0.00 0.00 0.00 42 1005.5
20260504231706 69 148 5.0 10.0 0.00 0.00 0.00 42 1005.6
20260504230206 69 150 6.0 12.0 0.00 0.00 0.00 41 1005.3
20260504225706 70 218 5.0 12.0 0.00 0.00 0.00 40 1005.3
20260504225206 70 142 5.0 9.0 0.00 0.00 0.00 39 1005.3
20260504223705 71 142 5.0 12.0 0.00 0.00 0.00 38 1005.4
20260504223206 71 165 5.0 10.0 0.00 0.00 0.00 38 1005.4
20260504222706 71 155 6.0 10.0 0.00 0.00 0.00 37 1005.4
20260504222206 72 90 3.0 10.0 0.00 0.00 0.00 37 1005.4
20260504221705 72 153 4.0 10.0 0.00 0.00 0.00 35 1005.4
20260504221206 73 124 4.0 12.0 0.00 0.00 0.00 35 1005.4
20260504220706 73 143 6.0 12.0 0.00 0.00 0.00 34 1005.4
20260504220206 74 170 3.0 10.0 0.00 0.00 0.00 34 1005.5
20260504215706 74 152 2.0 12.0 0.00 0.00 0.00 33 1005.5
20260504215206 74 154 7.0 13.0 0.00 0.00 0.00 28 1005.5
20260504214706 75 179 4.0 13.0 0.00 0.00 0.00 28 1005.6
20260504214206 75 170 5.0 12.0 0.00 0.00 0.00 28 1005.5
20260504212706 75 232 5.0 13.0 0.00 0.00 0.00 27 1005.6
20260504212206 75 275 5.0 12.0 0.00 0.00 0.00 27 1005.7
20260504211705 75 141 5.0 12.0 0.00 0.00 0.00 28 1005.8
20260504211206 75 213 4.0 13.0 0.00 0.00 0.00 28 1005.7
20260504210706 74 173 5.0 13.0 0.00 0.00 0.00 28 1005.7
20260504210206 75 267 7.0 13.0 0.00 0.00 0.00 28 1005.8
20260504205707 75 201 3.0 10.0 0.00 0.00 0.00 28 1005.6
20260504205206 75 168 6.0 12.0 0.00 0.00 0.00 28 1005.6
20260504204206 76 86 5.0 12.0 0.00 0.00 0.00 27 1005.6
20260504203706 76 216 4.0 12.0 0.00 0.00 0.00 28 1005.7
20260504203206 76 201 5.0 10.0 0.00 0.00 0.00 27 1005.7
20260504202706 75 68 3.0 12.0 0.00 0.00 0.00 28 1005.7
20260504202206 75 135 6.0 13.0 0.00 0.00 0.00 28 1005.6
20260504201706 75 148 5.0 13.0 0.00 0.00 0.00 28 1005.7
20260504201206 75 185 5.0 13.0 0.00 0.00 0.00 27 1005.8
20260504200206 75 291 3.0 15.0 0.00 0.00 0.00 27 1005.8
20260504195706 75 224 5.0 15.0 0.00 0.00 0.00 28 1005.9
20260504195205 75 187 7.0 15.0 0.00 0.00 0.00 27 1006.0
20260504194706 75 167 6.0 20.0 0.00 0.00 0.00 27 1005.9
20260504194206 75 168 5.0 20.0 0.00 0.00 0.00 27 1006.0
20260504193706 75 186 6.0 13.0 0.00 0.00 0.00 27 1006.0
20260504193206 75 165 6.0 13.0 0.00 0.00 0.00 27 1005.9
20260504192705 75 187 4.0 8.0 0.00 0.00 0.00 28 1006.0
20260504192206 75 166 3.0 10.0 0.00 0.00 0.00 28 1006.0
20260504191705 74 94 4.0 14.0 0.00 0.00 0.00 28 1006.2
20260504190706 74 178 5.0 13.0 0.00 0.00 0.00 28 1006.3
20260504190205 74 142 5.0 15.0 0.00 0.00 0.00 28 1006.5
20260504185705 74 218 5.0 15.0 0.00 0.00 0.00 28 1006.6
20260504185206 74 182 6.0 15.0 0.00 0.00 0.00 28 1006.8
20260504184707 74 232 6.0 15.0 0.00 0.00 0.00 28 1006.9
20260504184207 74 190 6.0 15.0 0.00 0.00 0.00 28 1006.8
20260504183705 74 181 6.0 15.0 0.00 0.00 0.00 28 1006.9
20260504183205 74 150 6.0 15.0 0.00 0.00 0.00 28 1006.9
20260504182706 74 199 5.0 15.0 0.00 0.00 0.00 28 1007.0
20260504181705 73 209 4.0 14.0 0.00 0.00 0.00 28 1007.1
20260504181206 73 209 5.0 17.0 0.00 0.00 0.00 29 1007.2
20260504180706 73 234 5.0 20.0 0.00 0.00 0.00 29 1007.2
20260504180206 72 270 5.0 20.0 0.00 0.00 0.00 29 1007.4
20260504175705 72 136 9.0 20.0 0.00 0.00 0.00 29 1007.4
20260504175206 72 167 5.0 15.0 0.00 0.00 0.00 29 1007.6
20260504174706 72 251 6.0 15.0 0.00 0.00 0.00 29 1007.7
20260504174206 72 201 6.0 15.0 0.00 0.00 0.00 30 1007.6
20260504173706 72 165 7.0 13.0 0.00 0.00 0.00 29 1007.6
20260504173206 72 237 5.0 13.0 0.00 0.00 0.00 29 1007.6
20260504172705 72 259 6.0 18.0 0.00 0.00 0.00 29 1007.9
20260504172206 71 210 4.0 18.0 0.00 0.00 0.00 30 1007.7
20260504171206 71 175 8.0 18.0 0.00 0.00 0.00 30 1007.9
20260504170706 71 181 5.0 20.0 0.00 0.00 0.00 30 1008.1
20260504150705 68 190 3.0 14.0 0.00 0.00 0.00 32 1009.4
20260504150206 67 219 8.0 14.0 0.00 0.00 0.00 32 1009.6
20260504141205 65 187 3.0 13.0 0.00 0.00 0.00 39 1009.7
20260504140705 64 136 6.0 14.0 0.00 0.00 0.00 40 1009.7
20260504140206 64 232 6.0 14.0 0.00 0.00 0.00 40 1009.8
20260504130706 59 199 6.0 14.0 0.00 0.00 0.00 48 1010.4
20260504130205 59 202 5.0 14.0 0.00 0.00 0.00 48 1010.5
20260504120205 53 210 3.0 10.0 0.00 0.00 0.00 59 1010.8
20260504110705 51 234 3.0 12.0 0.00 0.00 0.00 56 1010.9
20260504110205 51 198 5.0 10.0 0.00 0.00 0.00 56 1010.8
20260504081705 51 248 2.0 5.0 0.00 0.00 0.00 47 1010.3
20260504081205 51 182 2.0 7.0 0.00 0.00 0.00 47 1010.3
20260504080206 52 159 2.0 6.0 0.00 0.00 0.00 47 1010.3
20260504070205 53 210 3.0 7.0 0.00 0.00 0.00 44 1009.9
20260504060204 53 232 3.0 8.0 0.00 0.00 0.00 43 1009.8
20260504050704 54 199 2.0 10.0 0.00 0.00 0.00 41 1009.5
20260504050204 54 219 5.0 10.0 0.00 0.00 0.00 41 1009.5
20260504045707 54 250 2.0 7.0 0.00 0.00 0.00 41 1009.5
20260504045206 55 148 2.0 9.0 0.00 0.00 0.00 41 1009.5
20260504043707 55 209 2.0 9.0 0.00 0.00 0.00 41 1009.5
20260504043206 55 187 2.0 9.0 0.00 0.00 0.00 40 1009.4
20260504042707 55 166 2.0 9.0 0.00 0.00 0.00 40 1009.3
20260504041206 55 237 2.0 10.0 0.00 0.00 0.00 39 1009.3
20260504040206 55 200 1.0 6.0 0.00 0.00 0.00 39 1009.2
20260504035707 55 200 2.0 6.0 0.00 0.00 0.00 38 1009.2
20260504035206 55 262 3.0 6.0 0.00 0.00 0.00 38 1009.2
20260504034707 55 223 2.0 7.0 0.00 0.00 0.00 38 1009.2
20260504034206 56 229 2.0 7.0 0.00 0.00 0.00 38 1009.2
20260504033707 56 180 3.0 9.0 0.00 0.00 0.00 38 1009.2
20260504033208 56 187 2.0 9.0 0.00 0.00 0.00 38 1009.1
20260504032706 56 206 2.0 3.0 0.00 0.00 0.00 37 1009.0
20260504032207 56 182 2.0 5.0 0.00 0.00 0.00 37 1009.0
20260504031707 56 246 2.0 9.0 0.00 0.00 0.00 36 1009.0
20260504031208 56 200 3.0 9.0 0.00 0.00 0.00 36 1009.0
20260504030706 56 234 2.0 8.0 0.00 0.00 0.00 36 1009.0
20260504030206 57 161 3.0 8.0 0.00 0.00 0.00 35 1009.0
20260504025707 57 204 1.0 7.0 0.00 0.00 0.00 36 1009.2
20260504025207 57 197 2.0 7.0 0.00 0.00 0.00 35 1009.1
20260504024706 57 213 2.0 6.0 0.00 0.00 0.00 35 1009.1
20260504023706 57 195 3.0 8.0 0.00 0.00 0.00 34 1009.1
20260504023207 57 199 3.0 8.0 0.00 0.00 0.00 34 1009.1
20260504022706 57 229 1.0 5.0 0.00 0.00 0.00 34 1009.0
20260504022207 57 207 2.0 5.0 0.00 0.00 0.00 34 1009.1
20260504021706 57 176 2.0 5.0 0.00 0.00 0.00 34 1009.0
20260504020706 57 161 2.0 5.0 0.00 0.00 0.00 33 1009.1
20260504020207 57 172 1.0 3.0 0.00 0.00 0.00 33 1009.1
20260504015208 57 213 2.0 5.0 0.00 0.00 0.00 33 1009.0
20260504013707 57 204 1.0 3.0 0.00 0.00 0.00 32 1008.8
20260504013207 58 215 1.0 3.0 0.00 0.00 0.00 32 1008.7
20260504011706 58 209 2.0 5.0 0.00 0.00 0.00 31 1008.7